DW8463 Weather Reports


time (UTC)temp
F
wind
direction
speed
knots
gust
knots
rain 1hr
in
rain 24hr
in
rain mn
in
humidity
%
barometer
mb
20260505063803 38 0 0.9 2.6 0.00 0.00 0.00 50 1005.7
20260505063303 38 0 1.7 4.3 0.00 0.00 0.00 50 1005.8
20260505062804 38 0 0.9 2.6 0.00 0.00 0.00 50 1005.8
20260505062304 38 0 0.0 0.9 0.00 0.00 0.00 50 1005.9
20260505061804 38 0 0.0 2.6 0.00 0.00 0.00 50 1005.8
20260505061304 38 0 0.0 1.7 0.00 0.00 0.00 50 1005.8
20260505060804 37 0 0.9 1.7 0.00 0.00 0.00 50 1005.8
20260505055803 38 0 0.9 1.7 0.00 0.00 0.00 55 1005.8
20260505055304 38 0 0.0 1.7 0.00 0.00 0.00 55 1005.8
20260505054304 38 0 0.0 0.9 0.00 0.00 0.00 55 1005.8
20260505053804 38 0 0.0 0.9 0.00 0.00 0.00 55 1005.7
20260505053304 38 0 0.0 0.0 0.00 0.00 0.00 55 1005.7
20260505052804 38 0 0.9 1.7 0.00 0.00 0.00 55 1005.8
20260505051804 39 0 0.0 0.0 0.00 0.00 0.00 55 1005.6
20260505050813 40 0 0.0 0.9 0.00 0.00 0.00 55 1005.5
20260505050303 40 0 0.9 2.6 0.00 0.00 0.00 55 1005.5
20260505041304 43 0 0.0 0.9 0.00 0.00 0.00 47 1005.5
20260505040803 43 0 0.9 2.6 0.00 0.00 0.00 47 1005.5
20260505040303 43 0 1.7 4.3 0.00 0.00 0.00 47 1005.5
20260505035803 43 0 1.7 4.3 0.00 0.00 0.00 45 1005.5
20260505035304 44 0 1.7 5.2 0.00 0.00 0.00 45 1005.5
20260505034803 44 0 1.7 4.3 0.00 0.00 0.00 45 1005.4
20260505034303 44 0 0.9 2.6 0.00 0.00 0.00 45 1005.5
20260505033803 44 0 2.6 4.3 0.00 0.00 0.00 45 1005.5
20260505033303 45 0 2.6 7.8 0.00 0.00 0.00 45 1005.5
20260505032804 45 0 2.6 5.2 0.00 0.00 0.00 45 1005.6
20260505032304 45 0 1.7 7.0 0.00 0.00 0.00 45 1005.5
20260505031304 46 0 3.5 10.4 0.00 0.00 0.00 45 1005.4
20260505030303 46 0 3.5 8.7 0.00 0.00 0.00 45 1005.3
20260505025803 46 0 5.2 12.2 0.00 0.00 0.00 42 1005.3
20260505025305 47 0 5.2 11.3 0.00 0.00 0.00 42 1005.3
20260505024804 47 0 5.2 10.4 0.00 0.00 0.00 42 1005.2
20260505023803 48 0 6.1 11.3 0.00 0.00 0.00 42 1004.9
20260505023304 48 0 7.8 17.4 0.00 0.00 0.00 42 1004.8
20260505022803 48 0 7.8 13.0 0.00 0.00 0.00 42 1004.6
20260505022304 49 0 7.8 17.4 0.00 0.00 0.00 42 1004.5
20260505021803 49 0 10.4 19.1 0.00 0.00 0.00 42 1004.4
20260505021303 49 0 9.6 17.4 0.00 0.00 0.00 42 1004.2
20260505020303 49 0 2.6 7.8 0.00 0.00 0.00 42 1003.9
20260505015803 49 0 5.2 13.0 0.00 0.00 0.00 41 1003.8
20260505015304 50 0 5.2 17.4 0.00 0.00 0.00 41 1003.7
20260505014803 50 0 6.1 13.0 0.00 0.00 0.00 41 1003.6
20260505014303 50 0 6.1 12.2 0.00 0.00 0.00 41 1003.5
20260505013804 50 0 5.2 10.4 0.00 0.00 0.00 41 1003.4
20260505013303 50 0 6.1 14.8 0.00 0.00 0.00 41 1003.4
20260505012803 50 0 5.2 17.4 0.00 0.00 0.00 41 1003.2
20260505012304 50 0 7.0 14.8 0.00 0.00 0.00 41 1003.2
20260505011803 51 0 6.1 13.9 0.00 0.00 0.00 41 1003.1
20260505010804 51 0 6.1 15.6 0.00 0.00 0.00 41 1002.9
20260505010304 52 0 7.8 19.1 0.00 0.00 0.00 41 1002.8
20260505005804 52 0 4.3 17.4 0.00 0.00 0.00 39 1002.6
20260505005304 52 0 8.7 15.6 0.00 0.00 0.00 39 1002.6
20260505004804 52 0 7.0 13.0 0.00 0.00 0.00 39 1002.4
20260505004304 52 0 7.8 15.6 0.00 0.00 0.00 39 1002.4
20260505003804 53 0 8.7 17.4 0.00 0.00 0.00 39 1002.4
20260505002804 53 0 8.7 14.8 0.00 0.00 0.00 39 1002.2
20260505002304 53 0 8.7 21.7 0.00 0.00 0.00 39 1002.2
20260505001803 54 0 7.0 17.4 0.00 0.00 0.00 39 1002.1
20260505001304 54 0 6.1 14.8 0.00 0.00 0.00 39 1002.0
20260505000804 54 0 9.6 20.0 0.00 0.00 0.00 39 1001.9
20260505000303 54 0 7.8 17.4 0.00 0.00 0.00 39 1001.8
20260504235804 55 0 7.8 15.6 0.00 0.00 0.00 36 1001.7
20260504235304 55 0 6.1 17.4 0.00 0.00 0.00 36 1001.7
20260504234804 55 0 10.4 18.2 0.00 0.00 0.00 36 1001.7
20260504234304 56 0 7.8 13.0 0.00 0.00 0.00 36 1001.6
20260504233804 56 0 5.2 15.6 0.00 0.00 0.00 36 1001.6
20260504233304 56 0 9.6 17.4 0.00 0.00 0.00 36 1001.4
20260504232804 56 0 12.2 20.0 0.00 0.00 0.00 36 1001.5
20260504232304 57 326 5.2 19.1 0.00 0.00 0.00 36 1001.4
20260504231304 57 314 8.7 14.8 0.00 0.00 0.00 36 1001.2
20260504230803 58 308 10.4 18.2 0.00 0.00 0.00 36 1001.1
20260504230304 58 319 11.3 18.2 0.00 0.00 0.00 36 1000.9
20260504225804 59 318 9.6 15.6 0.00 0.00 0.00 33 1000.8
20260504225304 59 355 6.1 12.2 0.00 0.00 0.00 33 1000.7
20260504224804 58 0 9.6 20.9 0.00 0.00 0.00 33 1000.7
20260504224304 58 0 11.3 21.7 0.00 0.00 0.00 33 1000.8
20260504223804 59 312 10.4 20.9 0.00 0.00 0.00 33 1000.5
20260504223304 59 296 10.4 18.2 0.00 0.00 0.00 33 1000.4
20260504222804 60 309 7.0 15.6 0.00 0.00 0.00 33 1000.4
20260504222305 60 0 10.4 19.1 0.00 0.00 0.00 33 1000.3
20260504221804 60 301 8.7 17.4 0.00 0.00 0.00 33 1000.1
20260504221304 60 0 9.6 15.6 0.00 0.00 0.00 33 1000.0
20260504220804 60 0 7.8 17.4 0.00 0.00 0.00 33 999.9
20260504220303 60 324 8.7 17.4 0.00 0.00 0.00 33 999.8
20260504215803 61 303 10.4 20.0 0.00 0.00 0.00 31 999.8
20260504215305 61 314 7.8 20.0 0.00 0.00 0.00 31 999.7
20260504214803 61 286 8.7 18.2 0.00 0.00 0.00 31 999.6
20260504213803 61 0 8.7 22.6 0.00 0.00 0.00 31 999.4
20260504212804 61 0 11.3 17.4 0.00 0.00 0.00 31 999.7
20260504211304 61 0 7.8 13.0 0.00 0.00 0.00 31 999.4
20260504210304 60 291 7.0 20.0 0.00 0.00 0.00 31 999.5
20260504205804 61 0 7.8 13.0 0.00 0.00 0.00 28 999.5
20260504205304 61 309 4.3 14.8 0.00 0.00 0.00 28 999.5
20260504204804 61 315 5.2 15.6 0.00 0.00 0.00 28 999.5
20260504204304 62 0 8.7 17.4 0.00 0.00 0.00 28 999.5
20260504203304 61 357 8.7 17.4 0.00 0.00 0.00 28 999.4
20260504202803 61 323 7.8 17.4 0.00 0.00 0.00 28 999.5
20260504202304 61 321 11.3 21.7 0.00 0.00 0.00 28 999.5
20260504201803 61 324 8.7 22.6 0.00 0.00 0.00 28 999.2
20260504201303 62 304 8.7 15.6 0.00 0.00 0.00 28 999.2
20260504200804 62 310 11.3 22.6 0.00 0.00 0.00 28 999.1
20260504194802 64 325 8.7 18.2 0.00 0.00 0.00 32 998.9
20260504194303 64 0 9.6 17.4 0.00 0.00 0.00 32 998.9
20260504193803 64 294 9.6 20.0 0.00 0.00 0.00 32 998.7
20260504193303 66 292 7.8 20.9 0.00 0.00 0.00 32 998.6
20260504192802 66 302 8.7 19.1 0.00 0.00 0.00 32 998.7
20260504192304 65 324 8.7 20.9 0.00 0.00 0.00 32 998.7
20260504191803 65 302 7.0 17.4 0.00 0.00 0.00 32 998.5
20260504191302 64 249 8.7 17.4 0.00 0.00 0.00 32 998.3
20260504190802 64 284 10.4 18.2 0.00 0.00 0.00 32 998.4
20260504190303 64 320 8.7 17.4 0.00 0.00 0.00 32 998.2
20260504185803 65 279 10.4 19.1 0.00 0.00 0.00 33 998.2
20260504185304 65 265 8.7 20.9 0.00 0.00 0.00 33 998.1
20260504184803 64 283 7.8 20.0 0.00 0.00 0.00 33 998.0
20260504184303 64 275 7.8 17.4 0.00 0.00 0.00 33 998.0
20260504183803 64 312 11.3 20.0 0.00 0.00 0.00 33 998.1
20260504182803 64 359 9.6 18.2 0.00 0.00 0.00 33 998.0
20260504182304 64 351 8.7 15.6 0.00 0.00 0.00 33 998.0
20260504181802 64 0 8.7 24.3 0.00 0.00 0.00 33 997.9
20260504181303 65 311 8.7 20.9 0.00 0.00 0.00 33 997.9
20260504180803 65 274 7.0 21.7 0.00 0.00 0.00 33 997.7
20260504180302 64 296 6.1 17.4 0.00 0.00 0.00 33 997.6
20260504175803 64 319 6.1 12.2 0.00 0.00 0.00 36 997.7
20260504175304 64 275 6.1 14.8 0.00 0.00 0.00 36 997.6
20260504174802 64 310 8.7 17.4 0.00 0.00 0.00 36 997.6
20260504174303 63 290 5.2 11.3 0.00 0.00 0.00 36 997.5
20260504173803 63 317 7.8 14.8 0.00 0.00 0.00 36 997.5
20260504173303 63 314 7.8 17.4 0.00 0.00 0.00 36 997.5
20260504172802 63 0 5.2 12.2 0.00 0.00 0.00 36 997.5
20260504171803 63 352 8.7 14.8 0.00 0.00 0.00 36 997.5
20260504171303 63 322 7.8 20.0 0.00 0.00 0.00 36 997.5
20260504170803 63 302 6.1 13.9 0.00 0.00 0.00 36 997.6
20260504170303 63 304 7.8 13.9 0.00 0.00 0.00 36 997.7
20260504160303 63 302 11.3 22.6 0.00 0.00 0.00 45 997.4
20260504150802 64 0 7.0 13.9 0.00 0.00 0.00 46 996.9
20260504150302 64 0 7.0 13.9 0.00 0.00 0.00 46 996.9
20260504141303 63 0 6.1 17.4 0.00 0.00 0.00 42 996.6
20260504140802 63 326 7.8 20.0 0.00 0.00 0.00 42 996.6
20260504140302 63 315 7.8 13.0 0.00 0.00 0.00 42 996.6
20260504130802 61 0 4.3 11.3 0.00 0.00 0.00 49 996.5
20260504130302 60 0 4.3 12.2 0.00 0.00 0.00 49 996.6
20260504120302 56 0 5.2 13.0 0.00 0.00 0.00 52 995.9
20260504110303 52 0 2.6 7.0 0.00 0.00 0.00 56 996.2
20260504100302 51 0 4.3 7.8 0.00 0.00 0.00 55 996.9
20260504081802 48 0 0.9 4.3 0.00 0.00 0.00 49 998.5
20260504081303 48 0 0.0 2.6 0.00 0.00 0.00 49 998.5
20260504080803 48 0 1.7 7.0 0.00 0.00 0.00 49 998.6
20260504080303 48 0 0.0 2.6 0.00 0.00 0.00 49 998.7
20260504070303 42 0 0.0 0.9 0.00 0.00 0.00 45 999.8